Regional Weather Roundup
Issued by NWS

Home | Current Version | Previous Version | Text Only | Print | Product List | Glossary On
Versions: 1 2 3 4 5 6 7 8 9 10 11 12 13 14 15 16 17 18 19 20 21 22 23 24 25 26 27
000
ASUS42 KTBW 182110
RWRFL
FLORIDA REGIONAL WEATHER ROUNDUP
NATIONAL WEATHER SERVICE TAMPA BAY RUSKIN FL
500 PM EDT FRI APR 18 2014

NOTE: "FAIR" INDICATES FEW OR NO CLOUDS BELOW 12,000 FEET WITH NO
SIGNIFICANT WEATHER AND/OR OBSTRUCTIONS TO VISIBILITY.


FLZ001>010-012>015-112-114-115-182200-
PANHANDLE FLORIDA

CITY           SKY/WX    TMP DP  RH WIND       PRES   REMARKS
PENSACOLA      CLOUDY    63  56  78 N13       29.97F
PENSACOLA NAS  CLOUDY    62  57  83 N10       29.97S
MILTON NAS     CLOUDY    60  55  83 VRB7      29.99S
CRESTVIEW      CLOUDY    59  57  93 NE9G18    29.98F
DUKE FIELD     CLOUDY    58  57  97 N14       29.95F
VALPARAISO     LGT RAIN  60  60  99 NE16      29.93F
MARY ESTHER    PTSUNNY   62  55  77 NE18      29.92F
TRI COUNTY     LGT RAIN  56  54  93 N21G30    30.01F FOG
PANAMA CITY    CLOUDY    58  55  90 N25G32    29.94F
TYNDALL AFB    CLOUDY    59  55  88 N21G31    29.93R
APALACHICOLA   CLOUDY    69  65  86 E10       29.88F

STATION/POSITION SKY/WX   TEMP    WIND        PRES    WAVE   SWELL
                          AIR SEA DIR/SP/G            HT/PER HT/PER
                          (F)     (DEG/KT/KT) (MB)    (FT/S) (FT/S)
30.1N   87.6W              61 65  360/ 19/ 23 1015.0R   6/ 8   5/ 8
29.2N   88.2W              65 71   10/ 23/ 27 1015.5F
28.8N   86.0W              70 68  250/  8/ 10 1011.2F   6/ 6   5/ 6
PANAMA CITY BEAC           56 67  360/ 25/ 34 1013.4F
CAPE SAN BLAS    NOT AVBL
TOWER C                    67      60/  8/  9 1011.6F
28.5N   84.5W              71 69  190/ 16/ 17 1012.3F   5/ 7

$$
FLZ011-016>038-118-127-128-134-139-239-182200-
NORTH FLORIDA

CITY           SKY/WX    TMP DP  RH WIND       PRES   REMARKS
MARIANNA       CLOUDY    57  57 100 NW14      29.99R FOG
TALLAHASSEE    CLOUDY    64  59  83 NE9       29.92F
PERRY          LGT RAIN  63  63 100 NE5       29.92F
CROSS CITY       N/A     69  67  93 S14G23    29.91F
GAINESVILLE    LGT RAIN  73  71  93 SE15      29.94F
MAYPORT NAS    LGT RAIN  72  69  90 S10       29.96S
JACKSONVILLE   CLOUDY    73  72  96 S5        29.95F
JAX NAS        LGT RAIN  75  71  87 S5        29.96F
JAX CRAIG      CLOUDY    74  70  87 S5        29.95F
JAX CECIL      LGT RAIN  73  72  94 SE3       29.95F
FERNANDINA BEA CLOUDY    70  68  94 CALM      29.95S
ST AUGUSTINE   CLOUDY    72  70  93 S12       29.97F

STATION/POSITION SKY/WX   TEMP    WIND        PRES    WAVE   SWELL
                          AIR SEA DIR/SP/G            HT/PER HT/PER
                          (F)     (DEG/KT/KT) (MB)    (FT/S) (FT/S)
SHELL POINT                65      40/  6/ 14 1012.9F
KEATON BEACH               70     130/ 10/ 12 1012.6F
CEDAR KEY                  68     220/  5/  7 1013.1F
FERNANDINA                 70 65  170/  5/  8 1013.9F
30.7N   81.3W                 64                N/A     6/ 7   2/11
MAYPORT                    70 65  180/  5/ 10   N/A
31.4N   80.9W              67 65  120/ 17/ 23 1014.6F   8/ 7   2/10
ST AUGUSTINE               67     180/  7/  8 1015.1F

$$
FLZ040-043>046-052-053-057-058-063-144-182200-
INTERIOR CENTRAL FLORIDA

CITY           SKY/WX    TMP DP  RH WIND       PRES   REMARKS
OCALA          LGT RAIN  72  64  78 SE6       29.95F
THE VILLAGES     N/A     68  66  94 S8        29.97R
LEESBURG       TSTM      69  66  90 SW8       29.98R
SANFORD        CLOUDY    79  73  82 SE8       29.96F
ORLANDO EXEC   CLOUDY    81  65  58 S12       29.96F
ORLANDO INTL   CLOUDY    81  66  60 S12       29.96F
KISSIMMEE      PTSUNNY   81  70  69 W25       29.99R
WINTER HAVEN   LGT RAIN  68  65  90 SW7       30.00F
LAKELAND       LGT RAIN  68  66  94 SW9       29.99F
BARTOW         CLOUDY    66  66 100 SW14      30.00R
OKEECHOBEE     CLOUDY    82  68  61 S10       29.97F

$$
FLZ041-047-054-059-064-141-147-182200-
EAST CENTRAL FLORIDA

CITY           SKY/WX    TMP DP  RH WIND       PRES   REMARKS
ORMOND BEACH   PTSUNNY   75  70  83 SE8       29.97
DAYTONA BEACH  CLOUDY    76  70  82 S8        29.96F
DELAND         CLOUDY    77  72  83 SE6       29.97F
NEW SMYRNA BEA LGT RAIN  75  70  83 S12       29.98F FOG
JFK SPACE CTR  CLOUDY    77  70  79 S17G23    29.97S
TITUSVILLE     CLOUDY    77  70  78 SE12      29.97F
CAPE CANAVERAL CLOUDY    77  71  81 S14       29.97S
PATRICK AFB    CLOUDY    78  71  81 SE15G24   29.97S
MELBOURNE      CLOUDY    79  70  74 SE16      29.97R
VERO BEACH     CLOUDY    80  71  74 SE22      29.97F
FT PIERCE      CLOUDY    81  69  67 SE17      29.97F
STUART         PTSUNNY   81  72  74 SE12G21   29.98F

STATION/POSITION SKY/WX   TEMP    WIND        PRES    WAVE   SWELL
                          AIR SEA DIR/SP/G            HT/PER HT/PER
                          (F)     (DEG/KT/KT) (MB)    (FT/S) (FT/S)
28.5N   80.2W              76 74  150/ 16/ 17 1015.4F
28.9N   78.5W              76 76  130/ 16/ 17 1017.5S   8/10   7/10
TRIDENT PIER               76 74  140/  8/ 12 1014.5S
28.4N   80.5W                 73                N/A     4/10   2/11
27.6N   80.2W                 74                N/A     6/10   2/11

$$
FLZ050-056-061-142-242-148-248-149-249-151-251-155-255-
160-260-182200-
WEST CENTRAL FLORIDA

CITY           SKY/WX    TMP DP  RH WIND       PRES   REMARKS
CRYSTAL RIVER  MOCLDY    68  66  94 S6        29.95S
INVERNESS      LGT RAIN  70  66  88 S8        29.97R
BROOKSVILLE    CLOUDY    68  66  93 S10       29.99R
CLEARWATER     CLOUDY    71  67  87 S12       29.97F
TAMPA INTL     LGT RAIN  70  67  90 S10       29.97F
TAMPA EXEC     LGT RAIN  72  66  83 S6        29.99S
PLANT CITY     DRIZZLE   70 N/A N/A S6        30.01S
MACDILL AFB    CLOUDY    70  70 100 S9        29.97S
PETER O KNIGHT CLOUDY    72  68  88 S7        29.98S
ST PETERSBURG  LGT RAIN  71  68  90 SW9       29.95F
SARASOTA       CLOUDY    71  66  84 S6        29.97S
VENICE         MOCLDY    70  66  88 W3        29.98F

STATION/POSITION SKY/WX   TEMP    WIND        PRES    WAVE   SWELL
                          AIR SEA DIR/SP/G            HT/PER HT/PER
                          (F)     (DEG/KT/KT) (MB)    (FT/S) (FT/S)
CEDAR KEY                  68     220/  5/  7 1013.1F
28.5N   84.5W              71 69  190/ 16/ 17 1012.3F   5/ 7
27.3N   84.3W                 72                N/A     4/ 6
CLEARWATER BEACH           70 72  170/ 11/ 14 1013.8F
MIDDLE TAMPA BAY           70     200/  8/ 10 1015.1F
VENICE                     70 74  260/  3/  5 1014.5F

$$
FLZ066-069-070-075>078-162-262-165-265-182200-
SOUTHWEST FLORIDA AND KEYS

CITY           SKY/WX    TMP DP  RH WIND       PRES   REMARKS
PUNTA GORDA    CLOUDY    73  67  81 W7        29.99F
FT MYERS       CLOUDY    81  69  67 S12G22    29.96F
SOUTHWEST INTL CLOUDY    81  66  60 S15       29.96F
NAPLES         CLOUDY    81  74  79 S16       29.96F
MARATHON       CLOUDY    85  72  65 SE6       29.98F
KEY WEST NAS   MOSUNNY   83  71  67 SE10      29.98S
KEY WEST INTL  SUNNY     82  72  71 SE9       29.98F

STATION/POSITION SKY/WX   TEMP    WIND        PRES    WAVE   SWELL
                          AIR SEA DIR/SP/G            HT/PER HT/PER
                          (F)     (DEG/KT/KT) (MB)    (FT/S) (FT/S)
VENICE                     70 74  260/  3/  5 1014.5F
NAPLES                     79 78  170/ 12/ 16 1015.1F
26.0N   85.6W              76 79  200/  8/ 10 1013.9F   4/ 8   3/ 8
DRY TORTUGAS     NOT AVBL
NW FL BAY                  81     160/  9/ 12 1016.0F
SOMBRERO KEY               82     150/ 10/ 10 1016.0F
LONG KEY                   81 82  170/  9/ 11 1016.0F
MOLASSES REEF              79 79  180/ 12/ 13 1015.6R

$$
FLZ067-068-071>074-168-172>174-182200-
SOUTHEAST FLORIDA

CITY           SKY/WX    TMP DP  RH WIND       PRES   REMARKS
W PALM BEACH   CLOUDY    82  69  64 S18       29.98F
FT LAUDER-EXEC CLOUDY    77  72  84 SE7       29.99S
FT LAUDERDALE  PTSUNNY   83  71  67 S12       29.99S
POMPANO BEACH  PTSUNNY   81  71  71 S15       29.99F
PEMBROKE PINES MOSUNNY   81  72  74 SE13      30.00F
OPA LOCKA      PTSUNNY   82  69  64 S16       29.99F
MIAMI          PTSUNNY   82  72  71 SE14      29.99F
WEST KENDALL   MOSUNNY   85  70  60 S13       29.99F
HOMESTEAD      MOSUNNY   83  73  72 SE13      29.99F

STATION/POSITION SKY/WX   TEMP    WIND        PRES    WAVE   SWELL
                          AIR SEA DIR/SP/G            HT/PER HT/PER
                          (F)     (DEG/KT/KT) (MB)    (FT/S) (FT/S)
PORT EVERGLADES            79     150/  7/ 11 1015.8
VIRGINIA KEY               80 80  160/ 10/ 14 1015.9F
LAKE WORTH                 78 78  160/ 14/ 16 1015.2F
FOWEY ROCKS                78 79  150/ 14/ 15 1015.7F
SETTLEMENT POINT           79     160/ 11/ 14 1016.9F

$$




USA.gov is the U.S. government's official web portal to all federal, state and local government web resources and services.